Home > Weather > Germany > Göppingen > Past weeks

Flag for Germany Weather past 2 weeks in Göppingen, Baden-Württemberg, Germany

43 °F

Drizzle. Low clouds.

Feels Like: 38 °F
Forecast: 36 / 50 °F
Wind: 9 mph from West

Location: Stoetten

Current Time: Dec 1, 2015 at 7:39:18 PM

Latest Report: Dec 1, 2015 at 7:00 PM

Visibility: 6 mi

Pressure: 30.41 "Hg

Humidity: 100%

Dew point: 43 °F

Location of GöppingenLocation

Historic Weather in Göppingen — Graph


Göppingen temperature yesterday

Maximum temperature yesterday: 46 °F (at 9:00 PM)
Minimum temperature yesterday: 43 °F (at 9:00 AM)
Average temperature yesterday: 44 °F

Past Weeks' High & Low Weather Summary

High56 °F (Nov 18, 2:00 AM)100% (Nov 20, 9:00 AM)30.40 "Hg (Nov 20, 9:00 AM)
Low24 °F (Nov 24, 5:00 PM)63% (Nov 18, 4:00 PM)29.41 "Hg (Nov 21, 2:00 PM)
Average37 °F90%30.01 "Hg
* Reported Nov 16 6:00 PM — Dec 1 6:00 PM, Göppingen, Weather by CustomWeather, © 2015

Note: Actual official high and low records may vary slightly from our data, if they occured in-between our weather recording intervals... More about our weather records


Göppingen weather history for previous 24 hours

Time TempWeatherWind HumidityBarometerVisibility
6:00 PM
Tue, Dec 1
43 °FLight rain. Low clouds.9 mph100%30.40 "Hg6 mi
5:00 PM43 °FLight rain. Dense fog.10 mph100%30.38 "Hg1 mi
4:00 PM43 °FLight rain. Dense fog.12 mph100%30.37 "Hg0 mi
3:00 PM44 °FLight rain. Dense fog.12 mph100%30.36 "Hg1 mi
2:00 PM44 °FLight rain. Low clouds.12 mph100%30.35 "Hg2 mi
1:00 PM44 °FLight rain. Low clouds.10 mph99%30.34 "Hg2 mi
12:00 PM44 °FLight rain. Overcast.10 mph99%30.34 "Hg2 mi
11:00 AM44 °FLight rain. Low clouds.10 mph99%30.33 "Hg3 mi
10:00 AM43 °FLight rain. Low clouds.12 mph97%30.31 "Hg3 mi
8:00 AM43 °FRain. Low clouds.12 mph98%30.28 "Hg2 mi
7:00 AM43 °FLight rain. Low clouds.12 mph97%30.26 "Hg4 mi
6:00 AM43 °FLight rain. Low clouds.16 mph95%30.24 "Hg5 mi
4:00 AM43 °FLight rain. Overcast.16 mph93%30.21 "Hg7 mi
3:00 AM44 °FLight freezing rain. Overcast.14 mph93%30.20 "Hg3 mi
10:00 PM
Mon, Nov 30
46 °FOvercast.17 mph78%30.13 "Hg43 mi
9:00 PM46 °FOvercast.17 mph79%30.14 "Hg47 mi
8:00 PM45 °FOvercast.17 mph79%30.14 "Hg47 mi
7:00 PM45 °FOvercast.17 mph80%30.16 "Hg47 mi
Weather by CustomWeather, © 2015

See weather overviewHow to use our weather pages